Location: Caserta
(41.0670°N, 14.3330°E)
Time: 04:44:36
(UTC+02:00)

STARLINK-1341 - Pass Details

Date: 03 October 2020
Orbit: 549 x 550 km, 53.0° (Epoch: 20 October)

Event Time Altitude Azimuth Distance (km) Brightness Sun altitude
Exits shadow 04:17:50 22° 35° (NE) 1,222 5.9 -31.0°
Drops below altitude 10° 04:19:28 10° 44° (NE) 1,824 7.0 -30.7°
Sets 04:21:45 0° 50° (NE) 2,721 8.2 -30.3°
